This demonstration page uses our WeatherBlox Daily Observations layout. Learn more.

Left ArrowRight Arrow

Hourly Observations for April 16, 2021

Temp ( °F °C ) Dew Point ( °F °C ) Humidity (%) Winds ( mph kmh ) Pressure ( in mb ) Visibility ( mi km ) Precip ( " mm )
12:53 am 00:53 Clear 51 10.6 40 4.4 66 66 NNE 6 9 30.00 1016 10 16 0.00 0.00
1:53 am 01:53 Clear 50 10 39 3.9 66 66 NW 3 6 30.01 1016 10 16 0.00 0.00
2:53 am 02:53 Clear 52 11.1 39 3.9 61 61 NNW 5 7 30.00 1016 10 16 0.00 0.00
3:53 am 03:53 Clear 49 9.4 39 3.9 69 69 N 3 6 29.99 1016 10 16 0.00 0.00
4:53 am 04:53 Clear 47 8.3 39 3.9 74 74 NNW 3 6 29.98 1015 10 16 0.00 0.00
5:53 am 05:53 Clear 46 7.8 38 3.3 73 73 Calm 29.99 1016 10 16 0.00 0.00
6:53 am 06:53 Sunny 46 7.8 39 3.9 77 77 Calm 29.99 1016 10 16 0.00 0.00
7:53 am 07:53 Sunny 54 12.2 41 5 62 62 Calm 29.99 1016 10 16 0.00 0.00
8:53 am 08:53 Sunny 62 16.7 41 5 46 46 N 6 9 29.98 1015 10 16 0.00 0.00
9:53 am 09:53 Sunny 70 21.1 34 1.1 27 27 N 16 26 29.96 1015 10 16 0.00 0.00
10:53 am 10:53 Sunny 72 22.2 35 1.7 26 26 N 8 13 29.96 1015 10 16 0.00 0.00
11:53 am 11:53 Sunny 77 25 35 1.7 22 22 NNE 14 22 29.94 1014 10 16 0.00 0.00
12:53 pm 12:53 Sunny 79 26.1 29 -1.7 16 16 NNE 9 15 29.92 1013 10 16 0.00 0.00
1:53 pm 13:53 Sunny 80 26.7 29 -1.7 15 15 N 12 19 29.91 1013 10 16 0.00 0.00
2:53 pm 14:53 Sunny 81 27.2 30 -1.1 16 16 NW 16 26 29.90 1012 10 16 0.00 0.00
3:53 pm 15:53 Sunny 83 28.3 31 -0.6 15 15 N 13 20 29.88 1012 10 16 0.00 0.00
4:53 pm 16:53 Sunny 83 28.3 30 -1.1 15 15 NNE 10 17 29.86 1011 10 16 0.00 0.00
5:53 pm 17:53 Sunny 83 28.3 28 -2.2 13 13 NNE 14 22 29.86 1011 10 16 0.00 0.00
6:53 pm 18:53 Sunny 81 27.2 29 -1.7 15 15 N 9 15 29.87 1011 10 16 0.00 0.00
7:53 pm 19:53 Clear 75 23.9 31 -0.6 20 20 NNW 5 7 29.88 1012 10 16 0.00 0.00
8:53 pm 20:53 Clear 69 20.6 34 1.1 27 27 N 5 7 29.90 1013 10 16 0.00 0.00
9:53 pm 21:53 Clear 65 18.3 35 1.7 33 33 N 5 7 29.93 1014 10 16 0.00 0.00
10:53 pm 22:53 Clear 64 17.8 34 1.1 33 33 NNW 6 9 29.95 1014 10 16 0.00 0.00
11:53 pm 23:53 Clear 58 14.4 36 2.2 44 44 Calm 29.96 1015 10 16 0.00 0.00

Powered by AerisWeather